This is the latest recevied weather packets stored in our database for station/object K8JMX-13. If no packets are shown the sender has not sent any weather packets the latest 10 day(s).
| Time | Temp. | Humidity | Pressure | Rain* | Wind** | Luminosity | Snow |
|---|---|---|---|---|---|---|---|
| 1777379885 | 13.89° C | 88% | 1010.8 hPa | 0 mm | - | 25 W/m² | - |
| 1777379580 | 13.89° C | 88% | 1010.8 hPa | 0 mm | - | 22 W/m² | - |
| 1777379276 | 13.89° C | 88% | 1010.7 hPa | 0 mm | - | 16 W/m² | - |
| 1777378970 | 13.89° C | 88% | 1010.8 hPa | 0 mm | - | 16 W/m² | - |
| 1777378667 | 13.89° C | 88% | 1010.7 hPa | 0 mm | - | 15 W/m² | - |
| 1777378363 | 13.89° C | 88% | 1010.7 hPa | 0 mm | - | 18 W/m² | - |
| 1777378058 | 13.33° C | 88% | 1010.4 hPa | 0 mm | - | 16 W/m² | - |
| 1777377753 | 13.33° C | 88% | 1010.6 hPa | 0 mm | - | 13 W/m² | - |
| 1777377447 | 13.33° C | 88% | 1010.4 hPa | 0 mm | - | 14 W/m² | - |
| 1777377143 | 13.33° C | 88% | 1010.4 hPa | 0 mm | - | 14 W/m² | - |
| 1777376840 | 13.33° C | 88% | 1010.4 hPa | 0 mm | - | 19 W/m² | - |
| 1777376538 | 13.33° C | 88% | 1010.5 hPa | 0 mm | - | 21 W/m² | - |
| 1777376234 | 13.33° C | 88% | 1010.5 hPa | 0 mm | - | 24 W/m² | - |
| 1777375928 | 13.33° C | 88% | 1010.4 hPa | 0 mm | - | 16 W/m² | - |
| 1777375623 | 13.33° C | 88% | 1010.3 hPa | 0 mm | - | 16 W/m² | - |
| 1777375318 | 13.33° C | 88% | 1010.4 hPa | 0 mm | - | 14 W/m² | - |
| 1777375015 | 13.33° C | 88% | 1010.3 hPa | 0 mm | - | 10 W/m² | - |
| 1777374710 | 13.33° C | 87% | 1010.3 hPa | 0 mm | - | 8 W/m² | - |
| 1777374406 | 13.33° C | 87% | 1010.3 hPa | 0 mm | - | 6 W/m² | - |
| 1777374099 | 13.33° C | 87% | 1010.2 hPa | 0 mm | - | 4 W/m² | - |
| 1777373794 | 13.33° C | 87% | 1010.3 hPa | 0 mm | - | 3 W/m² | - |
| 1777373492 | 13.33° C | 87% | 1010.2 hPa | 0 mm | - | 2 W/m² | - |
| 1777373187 | 12.78° C | 87% | 1010.2 hPa | 0 mm | - | 2 W/m² | - |
| 1777372882 | 12.78° C | 87% | 1010 hPa | 0 mm | - | 1 W/m² | - |
| 1777372577 | 12.78° C | 87% | 1009.8 hPa | 0 mm | - | 1 W/m² | - |
* Rain latest hour (hover to see other rain measurements)
** Current wind speed in m/s (hover to see current wind gust speed)